PGT909 LTFJ-LOWG

Flight info

Callsign PGT909
Flight time 1h 54m
Altitude 36000
Route VADEN1J/06L VADEN N618 ETIDA DCT PEROT DCT OSDUK DCT GOTAR GOTAR3M
Aircraft A21N/M-SDE2E3FGHIJ1RWXY/LB1

Departure

Time 2026-05-04 16:50
Airport Istanbul Sabiha Gökçen International Airport (LTFJ)

Arrival

Time 2026-05-04 18:44
Airport Graz Airport (LOWG)
Time Latitude Longitude Altitude Speed Heading
2026-05-04 16:03 40.90638 29.31667 344 ft 0 kts 334°
2026-05-04 16:35 40.90625 29.31675 316 ft 4 kts 334°
2026-05-04 16:36 40.90601 29.31691 314 ft 5 kts 334°
2026-05-04 16:36 40.90553 29.31724 314 ft 5 kts 327°
2026-05-04 16:37 40.90536 29.31739 315 ft 0 kts 326°
2026-05-04 16:40 40.90544 29.31711 316 ft 5 kts 272°
2026-05-04 16:41 40.90518 29.31622 316 ft 6 kts 244°
2026-05-04 16:41 40.90379 29.31456 316 ft 14 kts 152°
2026-05-04 16:42 40.90175 29.31218 316 ft 18 kts 244°
2026-05-04 16:43 40.90061 29.30908 316 ft 20 kts 244°
2026-05-04 16:43 40.89931 29.30557 316 ft 22 kts 244°
2026-05-04 16:43 40.89863 29.30371 315 ft 23 kts 244°
2026-05-04 16:44 40.89600 29.29659 310 ft 20 kts 244°
2026-05-04 16:45 40.89493 29.29368 309 ft 7 kts 244°
2026-05-04 16:46 40.89365 29.29273 309 ft 0 kts 154°
2026-05-04 16:48 40.89356 29.29279 310 ft 8 kts 154°
2026-05-04 16:49 40.89329 29.29492 312 ft 30 kts 62°
2026-05-04 16:49 40.89918 29.31094 317 ft 155 kts 64°
2026-05-04 16:50 40.90929 29.33851 1243 ft 166 kts 62°
2026-05-04 16:50 40.92000 29.36757 2285 ft 189 kts 59°
2026-05-04 16:51 40.93245 29.40121 3381 ft 222 kts 58°
2026-05-04 16:51 40.93948 29.42043 3912 ft 240 kts 58°
2026-05-04 16:51 40.95478 29.46217 5398 ft 260 kts 58°
2026-05-04 16:52 40.97059 29.50548 6710 ft 263 kts 58°
2026-05-04 16:52 40.97854 29.52727 6939 ft 263 kts 58°
2026-05-04 16:53 40.99460 29.57120 8248 ft 268 kts 59°
2026-05-04 16:53 41.03644 29.61345 10408 ft 282 kts 359°
2026-05-04 16:54 41.05644 29.60844 10722 ft 305 kts 346°
2026-05-04 16:55 41.13953 29.57481 11667 ft 370 kts 346°
2026-05-04 16:55 41.18964 29.55557 12719 ft 378 kts 346°
2026-05-04 16:56 41.24062 29.53654 13836 ft 383 kts 349°
2026-05-04 16:56 41.31970 29.51420 15119 ft 392 kts 351°
2026-05-04 16:57 41.34647 29.50663 15567 ft 395 kts 351°
2026-05-04 16:57 41.40019 29.48817 16351 ft 404 kts 343°
2026-05-04 16:58 41.47992 29.44733 17420 ft 414 kts 342°
2026-05-04 16:58 41.50686 29.43350 17769 ft 416 kts 342°
2026-05-04 16:59 41.56118 29.40496 18469 ft 423 kts 339°
2026-05-04 17:00 41.64486 29.29121 19751 ft 458 kts 297°
2026-05-04 17:00 41.65848 29.16204 20689 ft 480 kts 275°
2026-05-04 17:01 41.66000 29.07238 21297 ft 484 kts 276°
2026-05-04 17:01 41.66205 28.98193 21977 ft 489 kts 276°
2026-05-04 17:02 41.66409 28.89060 22529 ft 494 kts 276°
2026-05-04 17:02 41.66603 28.79819 23134 ft 500 kts 276°
2026-05-04 17:03 41.66691 28.75216 23473 ft 503 kts 276°
2026-05-04 17:03 41.66782 28.70529 23804 ft 505 kts 276°
2026-05-04 17:03 41.66967 28.61172 24705 ft 501 kts 276°
2026-05-04 17:04 41.67088 28.51873 25624 ft 498 kts 275°
2026-05-04 17:04 41.67188 28.42654 26508 ft 494 kts 275°
2026-05-04 17:05 41.67286 28.33485 27331 ft 492 kts 275°
2026-05-04 17:05 41.67374 28.24387 28211 ft 487 kts 275°
2026-05-04 17:06 41.67455 28.15341 28982 ft 485 kts 275°
2026-05-04 17:06 41.67491 28.10840 29363 ft 484 kts 275°
2026-05-04 17:07 41.68441 28.02080 30078 ft 470 kts 295°
2026-05-04 17:07 41.69323 27.99459 30280 ft 464 kts 303°
2026-05-04 17:07 41.71608 27.94610 30711 ft 459 kts 308°
2026-05-04 17:07 41.73369 27.91052 31057 ft 458 kts 308°
2026-05-04 17:08 41.75118 27.87489 31375 ft 457 kts 308°
2026-05-04 17:08 41.78571 27.80350 32002 ft 456 kts 307°
2026-05-04 17:08 41.80281 27.76784 32311 ft 455 kts 307°
2026-05-04 17:09 41.81988 27.73219 32633 ft 454 kts 307°
2026-05-04 17:09 41.83642 27.69605 32941 ft 455 kts 302°
2026-05-04 17:09 41.85092 27.65835 33247 ft 455 kts 301°
2026-05-04 17:10 41.87924 27.58262 33802 ft 453 kts 301°
2026-05-04 17:10 41.92221 27.46995 34484 ft 451 kts 301°
2026-05-04 17:11 41.93650 27.43243 34651 ft 451 kts 300°
2026-05-04 17:11 41.95079 27.39494 34785 ft 452 kts 300°
2026-05-04 17:11 41.97931 27.31960 35108 ft 452 kts 300°
2026-05-04 17:12 41.99353 27.28195 35286 ft 452 kts 300°
2026-05-04 17:12 42.02203 27.20672 35648 ft 451 kts 300°
2026-05-04 17:13 42.06446 27.09413 36097 ft 450 kts 299°
2026-05-04 17:14 42.12058 26.94451 36059 ft 449 kts 299°
2026-05-04 17:15 42.16279 26.83222 36052 ft 446 kts 299°
2026-05-04 17:16 42.21849 26.68261 36050 ft 446 kts 299°
2026-05-04 17:17 42.27407 26.53245 36035 ft 448 kts 299°
2026-05-04 17:18 42.32956 26.38186 36024 ft 448 kts 298°
2026-05-04 17:19 42.38476 26.23094 36039 ft 447 kts 298°
2026-05-04 17:20 42.43981 26.08007 36040 ft 447 kts 298°
2026-05-04 17:20 42.48084 25.96675 36044 ft 446 kts 297°
2026-05-04 17:21 42.53532 25.81556 36052 ft 447 kts 297°
2026-05-04 17:22 42.56248 25.73971 36041 ft 447 kts 297°
2026-05-04 17:23 42.61676 25.58808 36058 ft 446 kts 297°
2026-05-04 17:24 42.65735 25.47439 36061 ft 444 kts 297°
2026-05-04 17:25 42.71073 25.32437 36071 ft 438 kts 298°
2026-05-04 17:26 42.76326 25.17517 36078 ft 438 kts 297°
2026-05-04 17:27 42.82895 24.98738 36093 ft 439 kts 298°
2026-05-04 17:28 42.88123 24.83728 36095 ft 440 kts 296°
2026-05-04 17:29 42.95975 24.61069 36113 ft 440 kts 296°
2026-05-04 17:31 43.02485 24.42160 36115 ft 440 kts 296°
2026-05-04 17:32 43.08947 24.23191 36104 ft 440 kts 296°
2026-05-04 17:33 43.14100 24.08003 36104 ft 440 kts 296°
2026-05-04 17:34 43.19226 23.92779 36106 ft 440 kts 296°
2026-05-04 17:35 43.25606 23.73737 36088 ft 439 kts 295°
2026-05-04 17:36 43.28148 23.66117 36079 ft 440 kts 295°
2026-05-04 17:36 43.30688 23.58471 36090 ft 440 kts 295°
2026-05-04 17:37 43.33207 23.50873 36092 ft 440 kts 295°
2026-05-04 17:37 43.35735 23.43218 36086 ft 440 kts 295°
2026-05-04 17:38 43.38262 23.35551 36087 ft 441 kts 295°
2026-05-04 17:38 43.40777 23.27871 36096 ft 441 kts 295°
2026-05-04 17:39 43.44546 23.16334 36093 ft 441 kts 295°
2026-05-04 17:39 43.47055 23.08639 36081 ft 441 kts 295°
2026-05-04 17:40 43.49150 23.02189 36076 ft 440 kts 295°
2026-05-04 17:40 43.51648 22.94490 36084 ft 440 kts 295°
2026-05-04 17:41 43.54143 22.86789 36086 ft 440 kts 295°
2026-05-04 17:41 43.56627 22.79078 36090 ft 440 kts 295°
2026-05-04 17:42 43.59110 22.71370 36078 ft 439 kts 296°
2026-05-04 17:42 43.61583 22.63661 36088 ft 439 kts 296°
2026-05-04 17:43 43.64064 22.55956 36091 ft 439 kts 296°
2026-05-04 17:43 43.66514 22.48289 36090 ft 439 kts 296°
2026-05-04 17:44 43.69173 22.40731 36072 ft 435 kts 306°
2026-05-04 17:44 43.72712 22.33966 36088 ft 434 kts 309°
2026-05-04 17:45 43.76311 22.27252 36087 ft 435 kts 308°
2026-05-04 17:45 43.79891 22.20502 36083 ft 435 kts 308°
2026-05-04 17:46 43.83469 22.13751 36082 ft 435 kts 308°
2026-05-04 17:46 43.87038 22.06980 36087 ft 435 kts 308°
2026-05-04 17:47 43.90605 22.00204 36092 ft 435 kts 308°
2026-05-04 17:47 43.94172 21.93420 36088 ft 436 kts 308°
2026-05-04 17:48 43.97731 21.86625 36089 ft 434 kts 308°
2026-05-04 17:48 44.01275 21.79857 36096 ft 433 kts 308°
2026-05-04 17:49 44.04818 21.73079 36102 ft 433 kts 308°
2026-05-04 17:49 44.08358 21.66282 36102 ft 435 kts 308°
2026-05-04 17:50 44.11897 21.59467 36090 ft 434 kts 308°
2026-05-04 17:50 44.15430 21.52651 36096 ft 434 kts 308°
2026-05-04 17:51 44.18961 21.45820 36097 ft 434 kts 308°
2026-05-04 17:51 44.22465 21.39026 36098 ft 434 kts 308°
2026-05-04 17:52 44.25983 21.32178 36081 ft 434 kts 308°
2026-05-04 17:52 44.29498 21.25326 36092 ft 434 kts 308°
2026-05-04 17:53 44.33012 21.18475 36088 ft 434 kts 308°
2026-05-04 17:53 44.36519 21.11608 36088 ft 434 kts 308°
2026-05-04 17:54 44.40024 21.04733 36091 ft 435 kts 308°
2026-05-04 17:54 44.43519 20.97838 36086 ft 434 kts 308°
2026-05-04 17:55 44.47018 20.90963 36087 ft 434 kts 308°
2026-05-04 17:55 44.50514 20.84073 36089 ft 434 kts 308°
2026-05-04 17:56 44.54000 20.77179 36088 ft 434 kts 308°
2026-05-04 17:56 44.57474 20.70284 36087 ft 432 kts 307°
2026-05-04 17:57 44.60935 20.63395 36086 ft 432 kts 307°
2026-05-04 17:57 44.64390 20.56496 36084 ft 432 kts 307°
2026-05-04 17:58 44.67845 20.49592 36081 ft 432 kts 307°
2026-05-04 17:58 44.71293 20.42680 36082 ft 431 kts 307°
2026-05-04 17:59 44.74710 20.35815 36083 ft 431 kts 307°
2026-05-04 18:00 44.79887 20.25386 36081 ft 431 kts 307°
2026-05-04 18:00 44.83293 20.18505 36083 ft 431 kts 307°
2026-05-04 18:01 44.86717 20.11570 36078 ft 431 kts 307°
2026-05-04 18:01 44.90139 20.04623 36080 ft 431 kts 307°
2026-05-04 18:02 44.95264 19.94182 36078 ft 431 kts 307°
2026-05-04 18:02 44.98672 19.87219 36075 ft 431 kts 307°
2026-05-04 18:03 45.02091 19.80214 36065 ft 433 kts 306°
2026-05-04 18:03 45.05499 19.73194 36069 ft 433 kts 306°
2026-05-04 18:04 45.08898 19.66168 36069 ft 433 kts 306°
2026-05-04 18:05 45.14006 19.55621 36059 ft 433 kts 306°
2026-05-04 18:05 45.17407 19.48588 36061 ft 433 kts 306°
2026-05-04 18:06 45.22503 19.38027 36062 ft 433 kts 306°
2026-05-04 18:06 45.25894 19.30973 36054 ft 433 kts 306°
2026-05-04 18:07 45.29276 19.23909 36067 ft 433 kts 306°
2026-05-04 18:07 45.32656 19.16837 36055 ft 433 kts 306°
2026-05-04 18:08 45.36036 19.09747 36055 ft 433 kts 306°
2026-05-04 18:08 45.39407 19.02652 36054 ft 433 kts 305°
2026-05-04 18:09 45.45866 18.88241 36047 ft 432 kts 303°
2026-05-04 18:10 45.49073 18.80992 36050 ft 432 kts 303°
2026-05-04 18:10 45.52278 18.73744 36049 ft 432 kts 303°
2026-05-04 18:11 45.55492 18.66477 36047 ft 433 kts 303°
2026-05-04 18:11 45.58694 18.59210 36051 ft 431 kts 303°
2026-05-04 18:12 45.61887 18.51955 36046 ft 431 kts 303°
2026-05-04 18:12 45.65073 18.44696 36043 ft 431 kts 303°
2026-05-04 18:13 45.68271 18.37431 36047 ft 431 kts 303°
2026-05-04 18:14 45.73048 18.26488 36041 ft 432 kts 302°
2026-05-04 18:14 45.76222 18.19191 36044 ft 432 kts 302°
2026-05-04 18:15 45.83642 18.05845 36047 ft 431 kts 314°
2026-05-04 18:16 45.87757 17.99596 36036 ft 432 kts 313°
2026-05-04 18:16 45.91863 17.93307 36043 ft 431 kts 313°
2026-05-04 18:17 45.98012 17.83860 36042 ft 432 kts 313°
2026-05-04 18:18 46.04171 17.74353 36027 ft 433 kts 313°
2026-05-04 18:18 46.08273 17.68008 36017 ft 433 kts 313°
2026-05-04 18:19 46.14412 17.58469 36019 ft 431 kts 313°
2026-05-04 18:19 46.16432 17.55321 35700 ft 428 kts 313°
2026-05-04 18:19 46.18458 17.52166 35415 ft 430 kts 313°
2026-05-04 18:20 46.20496 17.48995 35159 ft 431 kts 313°
2026-05-04 18:20 46.22537 17.45829 34910 ft 431 kts 313°
2026-05-04 18:20 46.24578 17.42655 34666 ft 432 kts 313°
2026-05-04 18:20 46.26620 17.39470 34425 ft 433 kts 313°
2026-05-04 18:21 46.28664 17.36269 34186 ft 433 kts 313°
2026-05-04 18:21 46.30710 17.33061 33927 ft 434 kts 313°
2026-05-04 18:21 46.32759 17.29848 33648 ft 435 kts 313°
2026-05-04 18:21 46.34808 17.26628 33385 ft 436 kts 313°
2026-05-04 18:22 46.36862 17.23396 33099 ft 437 kts 313°
2026-05-04 18:22 46.38923 17.20153 32831 ft 438 kts 313°
2026-05-04 18:22 46.40982 17.16905 32563 ft 439 kts 313°
2026-05-04 18:22 46.43051 17.13639 32301 ft 440 kts 313°
2026-05-04 18:23 46.45122 17.10366 32027 ft 442 kts 312°
2026-05-04 18:23 46.47198 17.07080 31779 ft 443 kts 312°
2026-05-04 18:23 46.49282 17.03778 31530 ft 444 kts 312°
2026-05-04 18:23 46.51368 17.00469 31253 ft 445 kts 312°
2026-05-04 18:24 46.53447 16.97166 30643 ft 442 kts 313°
2026-05-04 18:24 46.55521 16.93868 29878 ft 442 kts 313°
2026-05-04 18:24 46.57595 16.90561 28984 ft 444 kts 313°
2026-05-04 18:24 46.59677 16.87241 28138 ft 444 kts 313°
2026-05-04 18:25 46.61731 16.83962 27334 ft 445 kts 312°
2026-05-04 18:25 46.63818 16.80630 26508 ft 446 kts 312°
2026-05-04 18:25 46.65909 16.77286 25637 ft 448 kts 312°
2026-05-04 18:25 46.68012 16.73912 24803 ft 450 kts 311°
2026-05-04 18:26 46.70112 16.70537 24053 ft 450 kts 311°
2026-05-04 18:26 46.72215 16.67164 23346 ft 448 kts 311°
2026-05-04 18:26 46.74303 16.63811 22624 ft 445 kts 311°
2026-05-04 18:26 46.76388 16.60452 22113 ft 456 kts 311°
2026-05-04 18:27 46.78528 16.56994 21760 ft 460 kts 311°
2026-05-04 18:27 46.80663 16.53546 21403 ft 456 kts 311°
2026-05-04 18:27 46.82774 16.50129 20878 ft 449 kts 311°
2026-05-04 18:27 46.84854 16.46769 20286 ft 443 kts 310°
2026-05-04 18:28 46.86908 16.43446 19693 ft 438 kts 310°
2026-05-04 18:28 46.88936 16.40159 19117 ft 433 kts 310°
2026-05-04 18:28 46.90942 16.36898 18549 ft 429 kts 310°
2026-05-04 18:28 46.92926 16.33662 17878 ft 427 kts 310°
2026-05-04 18:29 46.94905 16.30442 17221 ft 424 kts 310°
2026-05-04 18:29 46.96719 16.27082 16651 ft 418 kts 301°
2026-05-04 18:29 46.97672 16.24638 16305 ft 422 kts 294°
2026-05-04 18:29 46.98882 16.19181 15987 ft 421 kts 278°
2026-05-04 18:30 46.98961 16.12107 15962 ft 418 kts 262°
2026-05-04 18:30 46.98593 16.07896 15973 ft 417 kts 261°
2026-05-04 18:30 46.98349 16.03659 15969 ft 419 kts 270°
2026-05-04 18:31 46.98855 15.99447 15963 ft 423 kts 286°
2026-05-04 18:31 47.00127 15.95560 15967 ft 427 kts 301°
2026-05-04 18:31 47.02054 15.92234 15973 ft 430 kts 313°
2026-05-04 18:31 47.04195 15.89175 15976 ft 430 kts 314°
2026-05-04 18:32 47.06323 15.86156 15705 ft 417 kts 314°
2026-05-04 18:32 47.08367 15.83214 14888 ft 405 kts 313°
2026-05-04 18:32 47.10316 15.80384 14482 ft 384 kts 313°
2026-05-04 18:32 47.12159 15.77697 14163 ft 363 kts 312°
2026-05-04 18:33 47.13904 15.75139 13821 ft 347 kts 312°
2026-05-04 18:33 47.15572 15.72684 13437 ft 332 kts 312°
2026-05-04 18:33 47.17171 15.70341 13081 ft 318 kts 312°
2026-05-04 18:33 47.18712 15.68082 12610 ft 309 kts 312°
2026-05-04 18:34 47.20225 15.65854 11997 ft 307 kts 311°
2026-05-04 18:34 47.21726 15.63638 11388 ft 305 kts 311°
2026-05-04 18:34 47.23214 15.61436 10821 ft 302 kts 311°
2026-05-04 18:34 47.24692 15.59256 10438 ft 300 kts 311°
2026-05-04 18:35 47.26167 15.57082 10024 ft 299 kts 311°
2026-05-04 18:35 47.27627 15.54922 9489 ft 296 kts 311°
2026-05-04 18:35 47.29076 15.52778 8976 ft 294 kts 311°
2026-05-04 18:35 47.30513 15.50648 8474 ft 292 kts 311°
2026-05-04 18:36 47.31899 15.48519 8135 ft 283 kts 306°
2026-05-04 18:36 47.32695 15.46028 8054 ft 259 kts 275°
2026-05-04 18:36 47.32645 15.43492 7998 ft 242 kts 257°
2026-05-04 18:36 47.32289 15.41073 7808 ft 242 kts 255°
2026-05-04 18:37 47.31887 15.38678 7572 ft 239 kts 249°
2026-05-04 18:37 47.31006 15.36651 7428 ft 237 kts 220°
2026-05-04 18:37 47.29554 15.35566 7297 ft 238 kts 191°
2026-05-04 18:37 47.27906 15.35669 6933 ft 239 kts 170°
2026-05-04 18:38 47.26283 15.36213 6555 ft 239 kts 168°
2026-05-04 18:38 47.24656 15.36757 6147 ft 239 kts 169°
2026-05-04 18:38 47.23050 15.37261 5712 ft 232 kts 170°
2026-05-04 18:38 47.21506 15.37726 5430 ft 218 kts 171°
2026-05-04 18:39 47.20044 15.38151 5344 ft 213 kts 171°
2026-05-04 18:39 47.18594 15.38558 4989 ft 213 kts 172°
2026-05-04 18:39 47.17133 15.38963 4690 ft 211 kts 172°
2026-05-04 18:39 47.15694 15.39369 4482 ft 210 kts 172°
2026-05-04 18:40 47.14305 15.39758 4336 ft 193 kts 172°
2026-05-04 18:40 47.13067 15.40101 4282 ft 169 kts 172°
2026-05-04 18:40 47.11975 15.40399 4038 ft 147 kts 172°
2026-05-04 18:40 47.11012 15.40662 3788 ft 138 kts 173°
2026-05-04 18:41 47.10075 15.40925 3535 ft 137 kts 174°
2026-05-04 18:41 47.09143 15.41183 3334 ft 136 kts 175°
2026-05-04 18:41 47.08216 15.41437 3098 ft 135 kts 175°
2026-05-04 18:41 47.07294 15.41698 2879 ft 134 kts 174°
2026-05-04 18:42 47.06374 15.41954 2660 ft 135 kts 173°
2026-05-04 18:42 47.05470 15.42199 2444 ft 133 kts 173°
2026-05-04 18:42 47.04560 15.42444 2210 ft 133 kts 174°
2026-05-04 18:42 47.03669 15.42692 1985 ft 131 kts 172°
2026-05-04 18:43 47.02769 15.42946 1739 ft 133 kts 169°
2026-05-04 18:43 47.01850 15.43212 1522 ft 136 kts 170°
2026-05-04 18:43 47.00940 15.43458 1332 ft 131 kts 170°
2026-05-04 18:43 47.00039 15.43703 1140 ft 130 kts 169°
2026-05-04 18:44 46.99276 15.43920 1109 ft 88 kts 170°
2026-05-04 18:44 46.98944 15.44010 1110 ft 56 kts 169°
2026-05-04 18:44 46.98729 15.44068 1106 ft 0 kts 169°
2026-05-04 18:45 46.98721 15.44070 1105 ft 5 kts 169°
2026-05-04 18:45 46.98674 15.44072 1106 ft 8 kts 213°
2026-05-04 18:45 46.98692 15.44097 1105 ft 11 kts 351°
2026-05-04 18:45 46.98829 15.44044 1107 ft 25 kts 346°
2026-05-04 18:46 46.99003 15.43992 1109 ft 26 kts 349°
2026-05-04 18:46 46.99155 15.43951 1110 ft 19 kts 351°
2026-05-04 18:46 46.99283 15.44005 1110 ft 21 kts 47°
2026-05-04 18:46 46.99353 15.44118 1116 ft 14 kts 47°
2026-05-04 18:47 46.99404 15.44198 1113 ft 7 kts 47°
2026-05-04 18:47 46.99444 15.44254 1117 ft 9 kts 31°
2026-05-04 18:47 46.99517 15.44255 1115 ft 12 kts 347°
2026-05-04 18:47 46.99575 15.44249 1117 ft 5 kts 43°
2026-05-04 18:48 46.99567 15.44297 1112 ft 6 kts 154°
2026-05-04 18:48 46.99533 15.44337 1112 ft 7 kts 125°
2026-05-04 18:48 46.99530 15.44342 1118 ft 0 kts 124°